Location: Ku?niki
(51.4449°N, 17.8974°E)
Time: 15:08:20
(UTC+00:00)

Envisat - Visible Passes

Search period start: 24 January 2022 00:00
Search period end: 03 February 2022 00:00
Orbit: 764 x 766 km, 98.2° (Epoch: 23 January)

Date Brightness Start Highest point End Pass type
(mag) Time Alt. Az. Time Alt. Az. Time Alt. Az.
24 Jan 5.8 02:16:07 10° NE 02:18:34 13° E 02:21:00 10° ESE visible
24 Jan 3.0 03:53:17 10° NNE 03:58:25 81° ESE 04:03:30 10° SSW visible
24 Jan 4.3 05:33:18 10° NNW 05:36:52 20° NW 05:40:24 10° W visible
25 Jan 4.1 03:16:35 10° NNE 03:21:24 41° E 03:26:11 10° SSE visible
25 Jan 3.6 04:55:47 10° N 05:00:21 34° WNW 05:04:54 10° SW visible
25 Jan 5.9 16:18:08 10° WSW 16:21:02 15° W 16:23:58 10° NW visible
26 Jan 5.2 02:40:19 10° NE 02:44:12 22° E 02:48:03 10° SE visible
26 Jan 2.9 04:18:37 10° N 04:23:40 64° WNW 04:28:41 10° SSW visible
27 Jan 6.0 02:05:44 10° ENE 02:06:47 11° E 02:07:48 10° E visible
27 Jan 3.3 03:41:42 10° NNE 03:46:48 67° ESE 03:51:51 10° S visible
27 Jan 4.1 05:21:27 10° N 05:25:23 23° WNW 05:29:19 10° WSW visible
28 Jan 4.5 03:05:06 10° NNE 03:09:44 34° E 03:14:19 10° SSE visible
28 Jan 3.3 04:44:05 10° N 04:48:50 41° WNW 04:53:34 10° SW visible
28 Jan 5.8 16:05:46 10° SW 16:09:17 19° W 16:12:50 10° NW visible
29 Jan 5.5 02:29:05 10° NE 02:32:28 18° E 02:35:50 10° SE visible
29 Jan 2.8 04:06:59 10° NNE 04:12:06 78° WNW 04:17:10 10° SSW visible
29 Jan 4.5 05:47:23 10° NNW 05:50:21 16° NW 05:53:18 10° W visible
30 Jan 3.6 03:30:09 10° NNE 03:35:10 54° E 03:40:08 10° S visible
30 Jan 3.9 05:09:40 10° N 05:13:55 27° WNW 05:18:08 10° WSW visible
30 Jan 6.3 16:33:21 10° WSW 16:34:57 11° W 16:36:33 10° WNW visible
31 Jan 4.9 02:53:41 10° NE 02:58:02 28° E 03:02:22 10° SSE visible
31 Jan 3.1 04:32:23 10° N 04:37:19 50° WNW 04:42:11 10° SW visible
01 Feb 5.8 02:18:00 10° NE 02:20:42 14° E 02:23:23 10° ESE visible
01 Feb 2.9 03:55:22 10° NNE 04:00:30 86° ESE 04:05:36 10° SSW visible
01 Feb 4.3 05:35:27 10° NNW 05:38:54 19° NW 05:42:20 10° W visible
02 Feb 4.0 03:18:38 10° NNE 03:23:31 44° E 03:28:21 10° S visible
02 Feb 3.7 04:57:54 10° N 05:02:25 32° WNW 05:06:54 10° SW visible
02 Feb 6.0 16:20:29 10° WSW 16:23:10 14° W 16:25:52 10° NW visible
